STARLINK-32562, 62168

Orbit data source: Space-Track

STARLINK-32562, 62168 is a payload satellite owned by SpaceX/Seattle (US) in LEO that was launched on Sat, 30 Nov 2024 UTC via an FALCON 9 launch vehicle from the Air Force Western Test Range (AFWTR). Payload-class satellites include a variety of spacecraft equipped with specific instruments for various scientific and technological missions. These include communications satellites like Starlink; space stations such as the ISS; scientific satellites like the Hubble; Earth observation satellites from companies like Planet Labs, Umbra, and HawkEye 360; GPS; miniature CubeSats for education and research; and military/defense satellites.

Loading next visibility...
Identifier
62168, 2024-225F
Orbit
LEO
Country
Flag of USUS
Related business
Manufacturer
SpaceX/Seattle
Mission
Operational Commercial Communications
Bus & Motor
STARLINK V2M, Unknown motor
Mass
730 kg wet, ~700 kg dry
Launch date (UTC)
2024-11-30 (1 year ago)
Launch vehicle
FALCON 9
Launch site
Air Force Western Test Range (AFWTR)
Object type
Payload
Rocket body
Debris
Shape & HBR
Box + 2 Pan, 17.7 m
Radar Cross Section
33.884 m², Large (>1 m²)

Expand to show TLE details & history
Last TLE update: 12 hours ago

TLE from 12 hours ago
0 STARLINK-32562
1 62168U 24225F   26039.84084320  .00007087  00000-0  59825-3 0  9991
2 62168  70.0004 237.1814 0002796 256.0836 104.0012 14.98518526 65554
Epoch: 2026-02-08T20:10Z
TLE epoch observation values (Epoch: 2026-02-08T20:10:48.852Z)
Latitude
-0.00005°
Longitude
155.5336°
Altitude
574.368 km
Speed
7.574 km/s
True Right ascension
15h 48m 43s
True Declination
0° 00' 00"
Sunlit
Object was in daylight at epoch
Visualization orbit readout
Latitude
Unknown
Longitude
Unknown
Altitude
Unknown
Speed
Unknown
Apparent Right ascension
Unknown
Apparent Declination
Unknown
Sunlit
N/A
Visualization observer readout
Local Sidereal Time
10:40:55
Azimuth
Unknown
Elevation
Unknown
Doppler factor
Unknown
Orbital elements
Apogee altitude
571.364 km
Perigee altitude
567.478 km
Semi-major axis
6,947.558 km
Eccentricity
0.00028
Inclination
70.0004°
RAAN
237.1814°
Arg. of periapsis
256.0836°
True anomaly
104.03229°
Mean anomaly
104.0012°
Eccentric anomaly
104.01674°
Mean motion
3.74796 °/min
Orbital period
96.05 mins
BSTAR
0.00059825
Loading maneuver chart data...
Computing Atmospheric mass density...
Loading historical data...
Loading historical data...
Loading historical data...
Loading historical data...
Loading historical data...
Loading historical data...
Loading historical data...

Documentation

Showing up to 5 results
|